Radiation Dose at Monitoring Post of Fukushima Daini Nuclear Power Station
Date,Time,MP-1(microSv/h),MP-2(microSv/h),MP-3(microSv/h),MP-4(microSv/h),MP-5(microSv/h),MP-6(microSv/h),MP-7(microSv/h),Wind Direction,Wind Velocity(m/s),Rain
2024/06/04,00:00,0.142,0.125,0.201,0.189,0.203,0.111,0.072,northwest,8.1,No
2024/06/04,00:10,0.142,0.126,0.202,0.190,0.202,0.113,0.071,northwest,8.4,No
2024/06/04,00:20,0.142,0.126,0.200,0.188,0.202,0.112,0.072,north-northwest,7.7,No
2024/06/04,00:30,0.142,0.126,0.203,0.190,0.203,0.113,0.072,northwest,7.3,No
2024/06/04,00:40,0.142,0.126,0.201,0.189,0.202,0.111,0.071,north-northwest,7.8,No
2024/06/04,00:50,0.142,0.126,0.202,0.191,0.200,0.111,0.072,north-northwest,6.8,No
2024/06/04,01:00,0.142,0.126,0.201,0.189,0.203,0.111,0.072,north-northwest,7.3,No
2024/06/04,01:10,0.143,0.126,0.202,0.191,0.202,0.112,0.072,north-northwest,7.5,No
2024/06/04,01:20,0.142,0.127,0.201,0.189,0.203,0.112,0.072,north-northwest,7.8,No
2024/06/04,01:30,0.141,0.127,0.201,0.191,0.201,0.112,0.072,north-northwest,9.0,No
2024/06/04,01:40,0.142,0.125,0.202,0.189,0.204,0.112,0.073,north-northwest,8.4,No
2024/06/04,01:50,0.142,0.127,0.201,0.190,0.202,0.110,0.072,north-northwest,8.2,No
2024/06/04,02:00,0.142,0.125,0.202,0.190,0.202,0.111,0.072,north-northwest,8.3,No
2024/06/04,02:10,0.142,0.125,0.201,0.189,0.201,0.111,0.072,northwest,9.3,No
2024/06/04,02:20,0.142,0.126,0.202,0.190,0.203,0.112,0.072,north-northwest,8.7,No
2024/06/04,02:30,0.142,0.126,0.203,0.189,0.201,0.112,0.072,north-northwest,8.5,No
2024/06/04,02:40,0.144,0.126,0.200,0.191,0.203,0.112,0.072,north-northwest,8.2,No
2024/06/04,02:50,0.142,0.126,0.203,0.190,0.201,0.112,0.072,north-northwest,9.2,Yes
2024/06/04,03:00,0.143,0.127,0.201,0.191,0.204,0.111,0.072,north-northwest,7.2,No
2024/06/04,03:10,0.141,0.126,0.203,0.189,0.202,0.112,0.073,north-northwest,6.4,No
2024/06/04,03:20,0.142,0.126,0.201,0.190,0.202,0.111,0.072,north-northwest,7.2,No
2024/06/04,03:30,0.142,0.126,0.202,0.190,0.202,0.111,0.072,north-northwest,9.2,No
2024/06/04,03:40,0.142,0.127,0.202,0.190,0.204,0.112,0.072,north-northwest,9.5,No
2024/06/04,03:50,0.141,0.126,0.201,0.191,0.202,0.112,0.072,north-northwest,10.0,No
2024/06/04,04:00,0.142,0.126,0.202,0.189,0.203,0.112,0.072,north-northwest,9.5,No
2024/06/04,04:10,0.142,0.127,0.202,0.190,0.203,0.111,0.072,northwest,9.5,No
2024/06/04,04:20,0.143,0.126,0.202,0.188,0.202,0.111,0.072,north-northwest,9.8,No
2024/06/04,04:30,0.142,0.126,0.202,0.191,0.202,0.112,0.072,north-northwest,10.1,No
2024/06/04,04:40,0.142,0.126,0.202,0.190,0.202,0.112,0.072,north-northwest,9.6,No
2024/06/04,04:50,0.141,0.126,0.202,0.191,0.204,0.113,0.071,north-northwest,8.8,No
2024/06/04,05:00,0.142,0.127,0.201,0.190,0.202,0.112,0.072,north-northwest,9.3,No
2024/06/04,05:10,0.142,0.125,0.202,0.190,0.203,0.112,0.072,north-northwest,7.6,No
2024/06/04,05:20,0.141,0.127,0.202,0.189,0.201,0.111,0.072,north-northwest,9.2,No
2024/06/04,05:30,0.142,0.125,0.202,0.190,0.203,0.112,0.073,north-northwest,8.7,No
2024/06/04,05:40,0.141,0.127,0.201,0.189,0.201,0.111,0.072,north-northwest,8.5,No
2024/06/04,05:50,0.142,0.126,0.202,0.190,0.204,0.112,0.072,north-northwest,8.9,No
2024/06/04,06:00,0.142,0.127,0.201,0.190,0.201,0.112,0.072,north-northwest,7.5,No
2024/06/04,06:10,0.142,0.125,0.202,0.190,0.203,0.111,0.072,north-northwest,8.8,No
2024/06/04,06:20,0.142,0.126,0.201,0.190,0.201,0.111,0.072,north-northwest,8.5,No
2024/06/04,06:30,0.143,0.125,0.202,0.190,0.203,0.112,0.072,north-northwest,8.9,No
2024/06/04,06:40,0.141,0.126,0.201,0.189,0.202,0.112,0.072,northwest,8.5,No
2024/06/04,06:50,0.142,0.126,0.202,0.190,0.203,0.111,0.072,northwest,8.8,No
2024/06/04,07:00,0.142,0.126,0.200,0.190,0.201,0.112,0.072,northwest,9.5,No
2024/06/04,07:10,0.142,0.126,0.202,0.190,0.202,0.112,0.072,north-northwest,9.3,No
2024/06/04,07:20,0.143,0.127,0.201,0.189,0.202,0.113,0.072,north-northwest,7.9,No
2024/06/04,07:30,0.141,0.126,0.202,0.190,0.202,0.111,0.072,north-northwest,10.3,Yes
2024/06/04,07:40,0.143,0.126,0.201,0.189,0.204,0.112,0.072,north-northwest,8.2,Yes
2024/06/04,07:50,0.141,0.126,0.203,0.190,0.202,0.113,0.073,north-northwest,10.3,Yes
2024/06/04,08:00,0.143,0.126,0.200,0.188,0.204,0.111,0.072,north-northwest,10.0,Yes
2024/06/04,08:10,0.142,0.126,0.203,0.190,0.202,0.112,0.073,north-northwest,9.8,Yes
2024/06/04,08:20,0.143,0.127,0.201,0.188,0.203,0.111,0.072,north-northwest,8.9,Yes
2024/06/04,08:30,0.141,0.126,0.202,0.190,0.202,0.112,0.072,north-northwest,9.5,No
2024/06/04,08:40,0.143,0.126,0.201,0.189,0.204,0.112,0.072,north-northwest,8.1,No
2024/06/04,08:50,0.142,0.124,0.202,0.190,0.201,0.112,0.072,north-northwest,7.9,No
2024/06/04,09:00,0.142,0.126,0.202,0.190,0.202,0.112,0.073,north,7.9,No
2024/06/04,09:10,0.143,0.125,0.200,0.188,0.202,0.111,0.072,north,8.1,No
2024/06/04,09:20,0.141,0.127,0.202,0.190,0.200,0.112,0.072,north-northwest,6.3,No
2024/06/04,09:30,0.143,0.126,0.202,0.190,0.204,0.112,0.072,northwest,7.6,Yes
2024/06/04,09:40,0.143,0.127,0.202,0.189,0.201,0.111,0.072,north-northwest,7.2,Yes
2024/06/04,09:50,0.144,0.126,0.203,0.190,0.203,0.112,0.073,north-northwest,7.2,No
2024/06/04,10:00,0.143,0.126,0.202,0.189,0.203,0.112,0.072,north,8.4,No
2024/06/04,10:10,0.143,0.127,0.204,0.191,0.203,0.112,0.072,north-northwest,9.5,No
2024/06/04,10:20,0.142,0.126,0.202,0.190,0.203,0.112,0.073,north-northwest,6.6,No
2024/06/04,10:30,0.142,0.127,0.202,0.191,0.202,0.112,0.072,north,6.9,Yes
2024/06/04,10:40,0.142,0.126,0.202,0.190,0.202,0.112,0.072,north,8.3,Yes
2024/06/04,10:50,0.142,0.125,0.202,0.189,0.202,0.111,0.073,north-northwest,8.1,No
2024/06/04,11:00,0.143,0.126,0.202,0.191,0.204,0.113,0.072,north-northwest,10.0,No
2024/06/04,11:10,0.143,0.127,0.201,0.188,0.202,0.112,0.072,north-northwest,8.3,No
2024/06/04,11:20,0.143,0.128,0.202,0.190,0.203,0.111,0.072,north-northwest,8.7,Yes
2024/06/04,11:30,0.142,0.125,0.202,0.191,0.204,0.112,0.072,north-northwest,8.8,Yes
2024/06/04,11:40,0.141,0.126,0.202,0.190,0.200,0.112,0.073,north,6.3,No
2024/06/04,11:50,0.143,0.126,0.204,0.190,0.203,0.112,0.072,north,6.8,No
2024/06/04,12:00,0.141,0.127,0.200,0.189,0.201,0.112,0.072,north,7.8,No
2024/06/04,12:10,0.144,0.126,0.203,0.191,0.203,0.111,0.072,north,9.8,No
2024/06/04,12:20,0.142,0.127,0.203,0.189,0.204,0.112,0.071,north,8.1,No
2024/06/04,12:30,0.140,0.126,0.201,0.188,0.201,0.112,0.072,north,8.6,No
2024/06/04,12:40,0.142,0.126,0.200,0.188,0.201,0.112,0.072,north,10.4,No
2024/06/04,12:50,0.142,0.126,0.202,0.191,0.203,0.111,0.072,north,9.8,No
2024/06/04,13:00,0.141,0.127,0.202,0.191,0.202,0.112,0.071,north,9.8,No
2024/06/04,13:10,0.144,0.126,0.202,0.188,0.200,0.111,0.072,north,10.0,No
2024/06/04,13:20,0.142,0.126,0.202,0.192,0.203,0.111,0.072,north,9.8,No
2024/06/04,13:30,0.140,0.126,0.202,0.189,0.202,0.111,0.072,north,8.4,No
2024/06/04,13:40,0.143,0.126,0.201,0.190,0.201,0.112,0.073,north,8.9,No
2024/06/04,13:50,0.143,0.127,0.200,0.189,0.202,0.112,0.072,north,8.4,No
2024/06/04,14:00,0.141,0.126,0.204,0.191,0.203,0.111,0.071,north,8.1,No
2024/06/04,14:10,0.143,0.126,0.203,0.191,0.201,0.112,0.072,north,9.2,No
2024/06/04,14:20,0.143,0.126,0.202,0.190,0.200,0.112,0.072,north,10.0,No
2024/06/04,14:30,0.143,0.127,0.202,0.189,0.205,0.113,0.071,north-northeast,10.3,No
2024/06/04,14:40,0.143,0.125,0.204,0.190,0.203,0.112,0.072,north,10.0,No
2024/06/04,14:50,0.143,0.128,0.201,0.191,0.201,0.111,0.072,north,7.5,No
2024/06/04,15:00,0.142,0.126,0.201,0.190,0.201,0.111,0.072,north,8.8,No
2024/06/04,15:10,0.143,0.127,0.204,0.190,0.205,0.112,0.072,north,7.2,No
2024/06/04,15:20,0.142,0.127,0.203,0.191,0.203,0.111,0.073,north-northeast,9.5,No
2024/06/04,15:30,0.142,0.127,0.201,0.192,0.202,0.112,0.072,north,10.1,No
2024/06/04,15:40,0.143,0.126,0.203,0.190,0.202,0.111,0.072,north,8.1,No
2024/06/04,15:50,0.142,0.127,0.204,0.191,0.205,0.112,0.072,north,7.9,No
2024/06/04,16:00,0.142,0.127,0.202,0.192,0.202,0.112,0.072,north,7.3,No
2024/06/04,16:10,0.142,0.126,0.204,0.191,0.202,0.111,0.072,north,9.5,No
2024/06/04,16:20,0.141,0.127,0.204,0.192,0.204,0.111,0.072,north,7.4,No
2024/06/04,16:30,0.145,0.126,0.206,0.190,0.203,0.114,0.072,north,6.4,No
2024/06/04,16:40,0.143,0.127,0.203,0.193,0.205,0.112,0.072,north,7.5,No
2024/06/04,16:50,0.144,0.128,0.204,0.191,0.203,0.112,0.072,north,8.3,No
2024/06/04,17:00,0.144,0.127,0.203,0.192,0.204,0.112,0.072,north,6.9,No
2024/06/04,17:10,0.143,0.127,0.204,0.191,0.203,0.112,0.072,north,5.9,No
2024/06/04,17:20,0.143,0.127,0.203,0.193,0.203,0.112,0.072,north-northwest,7.8,No
2024/06/04,17:30,0.142,0.128,0.204,0.191,0.204,0.112,0.072,north,7.6,No
2024/06/04,17:40,0.143,0.128,0.204,0.192,0.203,0.112,0.072,north,6.2,No
2024/06/04,17:50,0.143,0.127,0.204,0.190,0.204,0.113,0.072,north,7.3,No
2024/06/04,18:00,0.143,0.126,0.203,0.192,0.202,0.113,0.073,north,7.2,No
2024/06/04,18:10,0.143,0.127,0.203,0.192,0.204,0.111,0.072,north,5.8,No
2024/06/04,18:20,0.143,0.126,0.204,0.193,0.201,0.112,0.072,north-northwest,6.2,No
2024/06/04,18:30,0.142,0.127,0.203,0.191,0.205,0.112,0.072,north,4.6,No
2024/06/04,18:40,0.144,0.127,0.204,0.192,0.203,0.112,0.072,north-northwest,6.1,No
2024/06/04,18:50,0.143,0.127,0.203,0.192,0.204,0.112,0.072,north-northwest,7.0,No
2024/06/04,19:00,0.144,0.127,0.204,0.192,0.202,0.112,0.072,north-northwest,6.7,No
2024/06/04,19:10,0.143,0.127,0.204,0.190,0.205,0.111,0.073,north-northwest,8.1,No
2024/06/04,19:20,0.143,0.127,0.204,0.192,0.203,0.112,0.072,north-northwest,7.0,No
2024/06/04,19:30,0.142,0.127,0.203,0.192,0.202,0.112,0.073,north-northwest,7.3,No
2024/06/04,19:40,0.144,0.127,0.204,0.191,0.204,0.111,0.072,north-northwest,7.1,No
2024/06/04,19:50,0.143,0.127,0.204,0.193,0.204,0.112,0.073,north-northwest,7.0,No
2024/06/04,20:00,0.143,0.127,0.203,0.190,0.202,0.112,0.072,north-northwest,6.9,No
2024/06/04,20:10,0.143,0.127,0.204,0.192,0.204,0.112,0.072,north-northwest,6.0,No
2024/06/04,20:20,0.144,0.127,0.202,0.191,0.203,0.112,0.072,north-northwest,6.4,No
2024/06/04,20:30,0.142,0.126,0.204,0.192,0.203,0.112,0.073,north-northwest,6.6,No
2024/06/04,20:40,0.143,0.127,0.203,0.191,0.204,0.112,0.073,north-northwest,7.5,No
2024/06/04,20:50,0.143,0.127,0.205,0.193,0.202,0.112,0.072,north-northwest,6.5,No
2024/06/04,21:00,0.143,0.127,0.203,0.191,0.204,0.112,0.073,north,6.5,No
2024/06/04,21:10,0.142,0.126,0.204,0.192,0.202,0.112,0.072,north-northwest,4.7,No
2024/06/04,21:20,0.144,0.127,0.203,0.191,0.204,0.112,0.072,north-northwest,6.3,No
2024/06/04,21:30,0.143,0.127,0.203,0.193,0.202,0.112,0.073,north-northwest,5.9,No
2024/06/04,21:40,0.143,0.126,0.204,0.191,0.204,0.112,0.072,north-northwest,6.2,No
2024/06/04,21:50,0.143,0.128,0.204,0.192,0.203,0.113,0.072,north-northwest,6.1,No
2024/06/04,22:00,0.143,0.127,0.204,0.192,0.204,0.112,0.073,north-northwest,6.3,No
2024/06/04,22:10,0.143,0.127,0.204,0.193,0.202,0.112,0.072,north-northwest,5.7,No
2024/06/04,22:20,0.143,0.126,0.204,0.191,0.204,0.112,0.073,north-northwest,6.1,No
2024/06/04,22:30,0.144,0.127,0.202,0.193,0.203,0.113,0.072,north-northwest,6.4,No
2024/06/04,22:40,0.143,0.127,0.205,0.192,0.204,0.112,0.072,north-northwest,5.2,No
2024/06/04,22:50,0.143,0.127,0.203,0.192,0.203,0.112,0.072,north-northwest,6.4,No
2024/06/04,23:00,0.143,0.127,0.204,0.191,0.204,0.112,0.072,north-northwest,6.3,No
2024/06/04,23:10,0.143,0.127,0.205,0.193,0.201,0.112,0.073,north-northwest,7.1,No
2024/06/04,23:20,0.144,0.127,0.205,0.192,0.204,0.112,0.072,north-northwest,6.8,No
2024/06/04,23:30,0.144,0.128,0.203,0.192,0.203,0.112,0.073,north-northwest,8.1,No
2024/06/04,23:40,0.143,0.128,0.204,0.191,0.204,0.112,0.074,north-northwest,9.2,No
2024/06/04,23:50,0.142,0.127,0.204,0.191,0.203,0.112,0.072,north-northwest,6.4,No
